Location: ??????????
(44.2167°N, 135.5333°E)
Time: 08:50:04
(UTC+00:00)

Cosmos 1300 Rocket - Visible Passes

Search period start: 18 May 2026 00:00
Search period end: 28 May 2026 00:00
Orbit: 596 x 617 km, 82.5° (Epoch: 18 May)

Date Brightness Start Highest point End Pass type
(mag) Time Alt. Az. Time Alt. Az. Time Alt. Az.
19 May 6.8 18:05:46 10° NE 18:07:53 13° ENE 18:09:59 10° E visible
20 May 6.4 18:18:14 10° NNE 18:21:35 21° ENE 18:24:53 10° ESE visible
21 May 5.5 18:31:11 10° N 18:35:12 33° ENE 18:39:09 10° SE visible
22 May 4.4 18:44:23 10° N 18:48:43 55° ENE 18:53:01 10° SSE visible
24 May 6.5 17:34:57 10° NNE 17:37:38 16° ENE 17:40:17 10° ESE visible
25 May 5.9 17:47:39 10° NNE 17:51:17 25° ENE 17:54:53 10° SE visible
26 May 5.0 18:00:43 10° N 18:04:53 39° ENE 18:08:58 10° SSE visible
27 May 3.9 18:13:59 10° N 18:18:23 67° E 18:22:43 10° SSE visible
